Regional Weather Roundup
Issued by NWS

Home | Current Version | Previous Version | Graphics & Text | Print | Product List | Glossary On
Versions: 1 2 3 4 5 6 7 8 9 10 11 12 13 14 15 16 17 18 19 20 21 22 23 24 25 26 27 28 29 30 31 32 33 34 35 36 37 38 39 40 41 42 43 44 45 46 47 48 49 50
461
ASUS44 KJAN 270503
RWRMS

MISSISSIPPI HOURLY WEATHER ROUNDUP
NATIONAL WEATHER SERVICE JACKSON MS
1100 PM CST THU FEB 26 2015

NOTE: "FAIR: INDICATES FEW OR NO CLOUDS BELOW 12,000 FEET WITH NO
SIGNIFICANT WEATHER AND/OR OBSTRUCTIONS TO VISIBILITY.

MSZ001>002-007>008-010>013-018>021-025>028-034>036-270600-
NORTHWEST MISSISSIPPI

CITY           SKY/WX    TMP DP  RH WIND       PRES   REMARKS
CLARKSDALE     MOCLDY    28  21  74 N16G22    30.43R WCI  17
CLEVELAND      CLOUDY    31  27  82 N14       30.40R WCI  21
GREENWOOD        N/A    N/A N/A N/A MISG      30.38R
GREENVILLE     PTCLDY    32  23  69 N14       30.39S WCI  22
OLIVE BRANCH   CLEAR     25  19  80 N15       30.41R WCI  12
OXFORD         MOCLDY    27  19  74 N9G16     30.39R WCI  17
TUNICA         MOCLDY    30  21  69 N15       30.44R WCI  19
$$

MSZ003>006-009-014>017-022>024-029>033-037>039-270600-
NORTHEAST MISSISSIPPI

CITY           SKY/WX    TMP DP  RH WIND       PRES   REMARKS
COLUMBUS AFB   CLOUDY    33  27  76 NW13      30.33R WCI  24
CORINTH        CLOUDY    30  21  69 N9G17     30.35R WCI  22
GOLDN TRIANGLE CLOUDY    34  27  75 NW12      30.32R WCI  25
STARKVILLE     CLOUDY    32  30  93 NW5       30.34R WCI  27
TUPELO         CLOUDY    30  23  75 N17       30.36R WCI  18
$$

MSZ040-058-270600-
CENTRAL MISSISSIPPI

CITY           SKY/WX    TMP DP  RH WIND       PRES   REMARKS
JACKSON INTL   CLOUDY    35  28  75 N14       30.34R WCI  26
JACKSON HAWKNS CLOUDY    34  28  79 N9        30.35R WCI  27
MERIDIAN KEY   PTCLDY    32  28  85 N7        30.30S WCI  26
MERIDIAN NAS   CLEAR     32  28  85 NW8       30.30S WCI  25
VICKSBURG      CLOUDY    34  28  79 N12       30.37F WCI  25
$$

MSZ059>079-270600-
SOUTH MISSISSIPPI

CITY           SKY/WX    TMP DP  RH WIND       PRES   REMARKS
BROOKHAVEN     CLOUDY    34  32  93 N10       30.33S WCI  26
HATTIESBURG    CLEAR     35  30  82 N6        30.30S WCI  30
MCCOMB         CLOUDY    34  28  79 N13G18    30.30R WCI  25
NATCHEZ        CLOUDY    36  28  75 NE14      30.35S WCI  27
PINE BELT      CLEAR     34  27  75 N8        30.30R WCI  27
$$

MSZ080>082-270600-
COASTAL MISSISSIPPI

CITY           SKY/WX    TMP DP  RH WIND       PRES   REMARKS
BILOXI         MOCLDY    42  32  67 N12       30.24R
PASCAGOULA     MOCLDY    42  32  67 MISG      30.24R
GULFPORT       MOCLDY    41  32  70 N10       30.25R
$$



USA.gov is the U.S. government's official web portal to all federal, state and local government web resources and services.